Regional Weather Roundup
Issued by NWS

Home | Current Version | Previous Version | Graphics & Text | Print | Product List | Glossary On
Versions: 1 2 3 4 5 6 7 8 9 10 11 12 13 14 15 16 17 18 19 20 21 22 23 24 25 26 27 28 29 30 31 32 33 34 35 36 37 38 39 40 41 42 43 44 45 46 47 48 49 50
000
ASUS43 KFSD 030802
RWRSD

WEATHER ROUNDUP FOR SOUTH DAKOTA
NATIONAL WEATHER SERVICE SIOUX FALLS SD
300 AM CDT WED JUN 03 2015

NOTE: "FAIR" INDICATES FEW OR NO CLOUDS BELOW 12,000 FEET WITH NO
SIGNIFICANT WEATHER AND/OR OBSTRUCTIONS TO VISIBILITY.


SDZ001>005-009-010-012>017-030900-
NORTHWEST AND NORTH CENTRAL SOUTH DAKOTA

CITY           SKY/WX    TMP DP  RH WIND       PRES   REMARKS
BUFFALO          N/A     54  50  86 NW14      29.89R
FAITH            N/A     59  52  77 N12       29.86S
MOBRIDGE       CLOUDY    61  56  83 NW14      29.80R
$$

SDZ012>016-024>037-041>051-057-063-072>074-030900-
SOUTHWEST AND SOUTH CENTRAL SOUTH DAKOTA

CITY           SKY/WX    TMP DP  RH WIND       PRES   REMARKS
RAPID CTY ARPT PTCLDY    55  50  83 NW12      29.89F
PIERRE         LGT RAIN  64  59  83 W18       29.83R
CUSTER         PTCLDY    48  32  53 NW6       30.01F
ELLSWORTH AFB  PTCLDY    54  51  89 W10       29.90F
PHILIP         CLOUDY    60  32  34 SE6       29.81F
PINE RIDGE     CLEAR     53  50  89 N3        29.92S
WINNER         FAIR      66  56  70 W20       29.84R
$$

SDZ004>011-016>023-039-040-030900-
NORTHEAST SOUTH DAKOTA

CITY           SKY/WX    TMP DP  RH WIND       PRES   REMARKS
ABERDEEN       CLOUDY    67  64  90 W7        29.75R
WATERTOWN      CLOUDY    66  61  84 S12       29.77F
BROOKINGS      CLOUDY    66  59  77 S14       29.82S
SISSETON         N/A     73  64  73 W25G44    29.68F
$$

SDZ017-020-022-023-036>040-048>070-030900-
SOUTHEAST SOUTH DAKOTA

CITY           SKY/WX    TMP DP  RH WIND       PRES   REMARKS
SIOUX FALLS    CLOUDY    65  59  81 S14       29.83S
HURON          CLOUDY    72  58  61 W12       29.75F
CHAMBERLAIN    RAIN      63  59  87 NW10      29.83F
MITCHELL       CLOUDY    68  62  81 SW10      29.78S
YANKTON        CLOUDY    68  63  83 NW5       29.83R
$$

ABBREVIATIONS USED IN REMARKS
   TC - TEMPERATURE IN CELSIUS
  WCI - WIND CHILL INDEX
   HX - HEAT INDEX
  VSB - VISIBILITY




USA.gov is the U.S. government's official web portal to all federal, state and local government web resources and services.